カタログに戻る

COSMOS 1800

運用中軍事LEO
NORAD 17144·PAYLOAD·🇷🇺 Russia

打ち上げ Nov 21, 1986 から Plesetsk Cosmodrome

Loading…

次のパス (今後24時間)

TLE

最新Source: Space-Track

元期: Sep 14, 2026, 15:00 UTC

1 17144U 86092G   26257.62524616 -.00000006  00000-0  65363-4 0  9990
2 17144  74.0136 301.9703 0048241 311.8903 217.4255 12.57048018827039

AllMySatでCOSMOS 1800をリアルタイム追跡

Download on the App Store